{"data":{"norad_id":57871,"epoch":"2026-09-20T01:39:41.564448Z","epoch_age_seconds":171770,"freshness":"FRESH","line1":"1 57871U 23144H   26263.06923107 -.00006570  00000+0 -22967-3 0  9997","line2":"2 57871  43.0032 267.5880 0001584 263.6967  96.3705 15.27547350167086","mean_motion":15.2754735,"eccentricity":0.0001584,"inclination_deg":43.0032,"raan_deg":267.588,"arg_perigee_deg":263.6967,"mean_anomaly_deg":96.3705,"bstar":-0.00022967,"rev_number":16708,"period_min":94.268763583662,"perigee_km":482.06003626281,"apogee_km":484.23369099081,"semimajor_km":6861.2838636268,"source":"CELESTRAK","updated_at":"2026-09-21T09:00:33.717177Z"}}